Flight Track Log - Related Links

Times and Time Zones

All times are in EDT time to prevent confusion due to time zone crossing. See the AWE1940 flight status page for this flight to view local times or setup timezone preferences in your user account.

Time Position Orientation Groundspeed Altitude Reporting Facility
EDT Latitude Longitude Course Direction KTS MPH feet Rate Location/Type
19:30 26.4964 -81.8469 North 216 249 3,400  Level Miami Center
19:31 26.5450 -81.8908 321° Northwest 270 311 5,900 2,850 Climbing Miami Center
19:32 26.8897 -81.7333 North  Level FlightAware Approximate
19:32 26.6131 -81.9169 341° North 292 336 9,100  Level Miami Center
19:33 27.0090 -81.7333 North  Level FlightAware Approximate
19:33 26.6986 -81.9136 North 292 336 11,000  Level Miami Center
19:34 27.1212 -81.7773 336° Northwest  Level FlightAware Approximate
19:34 26.7933 -81.8897 13° North 315 362 13,800  Level Miami Center
19:35 27.2368 -81.8092 347° North  Level FlightAware Approximate
19:35 26.8889 -81.8475 22° Northeast 337 388 16,300  Level Miami Center
19:36 27.3390 -81.8500 North  Level FlightAware Approximate
19:36 26.9886 -81.8608 353° North 351 404 18,900  Level Miami Center
19:37 27.0967 -81.8750 353° North 364 419 21,000 1,750 Climbing Miami Center
19:38 27.1942 -81.8908 352° North 387 445 22,400 1,650 Climbing Miami Center
19:39 27.3061 -81.9097 351° North 396 456 24,300 1,850 Climbing Miami Center
19:40 27.4308 -81.9269 353° North 407 468 26,100 1,401 Climbing Miami Center
19:42 27.6144 -81.9558 352° North 427 491 28,200 1,257 Climbing Jacksonville Center
19:43 27.7586 -81.9781 352° North 452 520 29,600 1,000 Climbing Jacksonville Center
19:44 27.8797 -81.9981 352° North 458 527 30,200 1,050 Climbing Jacksonville Center
19:45 28.0011 -82.0300 347° North 446 513 31,700 1,550 Climbing Jacksonville Center
19:46 28.1200 -82.0619 347° North 446 513 33,300 1,500 Climbing Jacksonville Center
19:47 28.2414 -82.0914 348° North 440 506 34,700 1,100 Climbing Jacksonville Center
19:48 28.3647 -82.1164 350° North 440 506 35,500 850 Climbing Jacksonville Center
19:49 28.4900 -82.1392 351° North 440 506 36,400 1,100 Climbing Jacksonville Center
19:50 28.6133 -82.1667 349° North 446 513 37,700 800 Climbing Jacksonville Center
19:51 28.7344 -82.1917 350° North 446 513 38,000 150 Climbing Jacksonville Center
19:52 28.8597 -82.2169 350° North 446 513 38,000  Level Jacksonville Center
19:53 28.9808 -82.2375 352° North 446 513 38,000  Level Jacksonville Center
19:54 29.1042 -82.2653 349° North 446 513 38,000  Level Jacksonville Center
19:55 29.2297 -82.2906 350° North 446 513 38,000  Level Jacksonville Center
19:56 29.3550 -82.3136 351° North 451 519 38,000 100 Level Jacksonville Center
19:57 29.4761 -82.3392 350° North 451 519 38,200 500 Climbing Jacksonville Center
19:58 29.5994 -82.3575 353° North 446 513 39,000 400 Climbing Jacksonville Center
19:59 29.7372 -82.3664 357° North 446 513 39,000  Level Jacksonville Center
20:00 29.8606 -82.3753 356° North 446 513 39,000  Level Jacksonville Center
20:01 29.9878 -82.3867 356° North 446 513 39,000  Level Jacksonville Center
20:02 30.1111 -82.4003 355° North 446 513 39,000 -50 Level Jacksonville Center
20:03 30.2342 -82.4069 357° North 446 513 38,900 -50 Descending Jacksonville Center
20:04 30.3617 -82.4183 356° North 446 513 38,900 50 Level Jacksonville Center
20:05 30.4869 -82.4272 357° North 446 513 39,000 50 Climbing Jacksonville Center
20:06 30.6144 -82.4389 355° North 446 513 39,000  Level Jacksonville Center
20:07 30.7458 -82.4431 358° North 457 526 39,000  Level Jacksonville Center
20:09 31.0161 -82.4231 North 492 566 39,000  Level Atlanta Center
20:10 31.1494 -82.4086 North 480 552 39,000  Level Atlanta Center
20:11 31.2808 -82.3964 North 475 547 39,000  Level Atlanta Center
20:12 31.4119 -82.3844 North 475 547 39,000  Level Atlanta Center
20:13 31.5433 -82.3722 North 475 547 39,000  Level Atlanta Center
20:14 31.6747 -82.3575 North 475 547 39,000  Level Atlanta Center
20:15 31.8039 -82.3478 North 475 547 39,000 -250 Level Atlanta Center
20:16 31.9353 -82.3356 North 475 547 38,500 -750 Descending Atlanta Center
20:17 32.0622 -82.3233 North 470 541 37,500 -950 Descending Atlanta Center
20:18 32.1958 -82.3108 North 464 534 36,600 -950 Descending Atlanta Center
20:19 32.3103 -82.2964 North 464 534 35,600 -1,000 Descending Atlanta Center
20:20 32.4436 -82.2839 North 464 534 34,600 -800 Descending Atlanta Center
20:21 32.5772 -82.2714 North 469 540 34,000 -300 Descending Atlanta Center
20:22 32.7128 -82.2589 North 477 549 34,000  Level Atlanta Center
20:23 32.8481 -82.2461 North 477 549 34,000 -50 Level Atlanta Center
20:24 32.9794 -82.2336 North 477 549 33,900 -550 Descending Atlanta Center
20:25 33.1150 -82.2208 North 477 549 32,900 -1,000 Descending Atlanta Center
20:26 33.2464 -82.2083 North 477 549 31,900 -950 Descending Atlanta Center
20:27 33.3797 -82.1931 North 477 549 31,000 -950 Descending Atlanta Center
20:28 33.5131 -82.1800 North 477 549 30,000 -1,000 Descending Atlanta Center
20:29 33.6464 -82.1672 North 477 549 29,000 -1,100 Descending Atlanta Center
20:30 33.7853 -82.1117 18° North 477 549 27,800 -1,500 Descending Atlanta Center
20:31 33.8992 -82.0467 25° Northeast 468 539 26,000 -1,900 Descending Atlanta Center
20:32 34.0108 -81.9789 27° Northeast 454 522 24,000 -1,000 Descending Atlanta Center
20:33 34.1203 -81.9161 25° Northeast 438 504 24,000 -700 Level Atlanta Center
20:34 34.2297 -81.8506 26° Northeast 438 504 22,600 -2,000 Descending Atlanta Center
20:35 34.3328 -81.7847 28° Northeast 432 497 20,000 -2,400 Descending Atlanta Center
20:36 34.4361 -81.7267 25° Northeast 415 478 17,800 -2,400 Descending Atlanta Center
20:37 34.4878 -81.6975 25° Northeast 399 459 16,400 -2,500 Descending Atlanta Center
20:37 34.5331 -81.6661 30° Northeast 397 457 15,300 -2,204 Descending Atlanta Center
20:38 34.5600 -81.6503 26° Northeast 383 441 14,600 -2,200 Descending Atlanta Center
20:38 34.6281 -81.6103 26° Northeast 381 438 13,100 -1,842 Descending Atlanta Center
20:39 34.7042 -81.5628 27° Northeast 360 414 11,500 -1,600 Descending Atlanta Center
20:40 34.7353 -81.5417 29° Northeast 327 376 11,100 -500 Descending Atlanta Center
20:40 34.7717 -81.4950 46° Northeast 322 371 11,000 -90 Descending Atlanta Center
20:41 34.7939 -81.4589 53° Northeast 289 333 11,000 -700 Level Atlanta Center
20:41 34.8178 -81.4050 62° Northeast 292 336 10,300 -1,222 Descending Atlanta Center
20:42 34.8256 -81.3794 70° East 274 315 9,900 -1,692 Descending Atlanta Center
20:43 34.8550 -81.2925 68° East 273 314 8,100 -1,558 Descending Atlanta Center
20:43 34.8789 -81.2358 63° Northeast 270 311 7,200 -1,000 Descending Atlanta Center
20:44 34.8906 -81.2000 68° East 268 308 7,000 -500 Descending Atlanta Center
20:44 34.9081 -81.1539 65° Northeast 265 305 6,700 -655 Descending Atlanta Center
20:45 34.9139 -81.1308 73° East 256 295 6,400 -700 Descending Atlanta Center
20:45 34.9333 -81.0744 67° East 250 288 6,000 -689 Descending Atlanta Center
20:46 34.9453 -81.0514 58° Northeast 243 280 5,700 -800 Descending Atlanta Center
20:46 34.9717 -81.0122 51° Northeast 240 276 5,200 -885 Descending Atlanta Center
20:47 34.9964 -80.9986 24° Northeast 246 283 4,800 -1,143 Descending Atlanta Center

Login

Don't have an account? Register now (free) for customized features, flight alerts, and more!